User: anonymous   Login
Location: Unspecified
(0.0000°N, 0.0000°E)
Time: 21:36:22
(UTC+00:00)
Language:

Picosat 6 - Orbit

View from above orbital plane
View from above orbital plane
View from above satellite
View from above satellite

Ground track
Ground track

The orbit data is extracted from the following two-line orbital elements,

1 26094U 00004M   18047.49544165  .00000092  00000-0  45650-4 0  9998
2 26094 100.1823 143.7152 0033790 224.8168 135.0285 14.42405962946206
Epoch (UTC): 16 February 2018 11:53:26
Eccentricity: 0.0033790
inclination: 100.1823°
perigee height: 726 km
apogee height: 774 km
right ascension of ascending node: 143.7152°
argument of perigee: 224.8168°
revolutions per day: 14.42405962
mean anomaly at epoch: 135.0285°
orbit number at epoch: 94620

The dashed part of the orbit path shows where the satellite is in the earth's shadow,  

DLR